Location: Newark
(9.4667°S, 159.8167°E)
Time: 14:44:00
(UTC+00:00)

Transit 2A - All Passes

Search period start: 20 November 2019 00:00
Search period end: 30 November 2019 00:00
Orbit: 601 x 957 km, 66.7° (Epoch: 20 November)

Date Brightness Start Highest point End Pass type
(mag) Time Alt. Az. Time Alt. Az. Time Alt. Az.
20 Nov - 11:57:49 10° NNW 12:02:42 78° WSW 12:08:12 10° SSE night (unlit)
20 Nov - 22:44:48 10° S 22:50:39 47° ESE 22:56:00 10° NE daylight
21 Nov - 00:30:43 10° WSW 00:33:20 13° WNW 00:35:52 10° NW daylight
21 Nov - 11:23:49 10° N 11:28:39 62° ENE 11:34:02 10° SSE night (unlit)
21 Nov - 22:11:15 10° S 22:16:28 30° ESE 22:21:19 10° NE daylight
21 Nov - 23:54:54 10° WSW 23:59:22 22° WNW 00:03:34 10° NNW daylight
22 Nov - 10:50:11 10° N 10:54:38 35° ENE 10:59:34 10° SE night (unlit)
22 Nov - 12:34:56 10° W 12:37:50 15° WSW 12:40:52 10° SSW night (unlit)
22 Nov - 21:38:07 10° SSE 21:42:14 19° ESE 21:46:08 10° ENE daylight
22 Nov - 23:19:58 10° SW 23:25:24 36° WNW 23:30:23 10° N daylight
23 Nov - 10:17:00 10° NNE 10:20:41 21° ENE 10:24:37 10° ESE night (unlit)
23 Nov - 11:59:28 10° WNW 12:03:34 25° WSW 12:08:02 10° SSW night (unlit)
23 Nov - 21:06:13 10° SE 21:07:57 11° ESE 21:09:38 10° E daylight
23 Nov - 22:45:29 10° SSW 22:51:24 60° WNW 22:56:46 10° N daylight
24 Nov - 09:44:52 10° NE 09:46:44 12° ENE 09:48:39 10° E night (unlit)
24 Nov - 11:24:40 10° NW 11:29:22 41° WSW 11:34:35 10° S night (unlit)
24 Nov - 22:11:17 10° SSW 22:17:20 85° ESE 22:22:49 10° NNE daylight
25 Nov - 10:50:17 10° NNW 10:55:13 70° WSW 11:00:46 10° SSE night (unlit)
25 Nov - 21:37:20 10° S 21:43:14 52° ESE 21:48:34 10° NE daylight
25 Nov - 23:24:05 10° W 23:25:50 11° WNW 23:27:33 10° WNW daylight
26 Nov - 10:16:14 10° NNW 10:21:09 70° ENE 10:26:40 10° SSE night (unlit)
26 Nov - 21:03:42 10° S 21:09:03 32° ESE 21:13:57 10° NE daylight
26 Nov - 22:47:47 10° WSW 22:51:54 20° WNW 22:55:45 10° NNW daylight
27 Nov - 09:42:30 10° N 09:47:08 40° ENE 09:52:15 10° SE night (unlit)
27 Nov - 11:27:49 10° W 11:30:23 14° WSW 11:33:05 10° SSW visible
27 Nov - 20:30:28 10° SSE 20:34:49 20° ESE 20:38:54 10° ENE daylight
27 Nov - 22:12:43 10° SW 22:17:55 32° WNW 22:22:43 10° N daylight
28 Nov - 09:09:12 10° NNE 09:13:10 24° ENE 09:17:27 10° SE night (unlit)
28 Nov - 10:52:08 10° WNW 10:56:07 23° WSW 11:00:26 10° SSW visible
28 Nov - 19:58:09 10° SE 20:00:32 12° ESE 20:02:51 10° E daylight
28 Nov - 21:38:08 10° SSW 21:43:55 53° WNW 21:49:10 10° N daylight
29 Nov - 08:36:40 10° NE 08:39:13 14° ENE 08:41:53 10° ESE visible
29 Nov - 10:17:14 10° NW 10:21:54 37° WSW 10:27:04 10° S visible
29 Nov - 21:03:52 10° SSW 21:09:53 87° WNW 21:15:18 10° NNE daylight
